TimeMDT,TemperatureF,Dew PointF,Humidity,Sea Level PressureIn,VisibilityMPH,Wind Direction,Wind SpeedMPH,Gust SpeedMPH,PrecipitationIn,Events,Conditions,WindDirDegrees,DateUTC
12:10 AM,21.2,19.4,93,30.09,8.0,WNW,10.4,-,0.00,Snow,Light Snow,300,2013-04-16 06:10:00
12:49 AM,21.2,19.4,93,30.09,6.0,WNW,6.9,-,0.00,Snow,Light Snow,290,2013-04-16 06:49:00
12:54 AM,21.9,19.9,92,30.22,6.0,WNW,8.1,-,0.00,Snow,Light Snow,290,2013-04-16 06:54:00
1:18 AM,21.2,19.4,93,30.08,5.0,WNW,8.1,-,0.00,Snow,Light Snow,300,2013-04-16 07:18:00
1:54 AM,21.0,19.0,92,30.19,8.0,WNW,9.2,-,0.00,Snow,Light Snow,300,2013-04-16 07:54:00
2:14 AM,21.2,19.4,93,30.07,7.0,WNW,8.1,-,0.00,Snow,Light Snow,300,2013-04-16 08:14:00
2:32 AM,21.2,19.4,93,30.07,10.0,WNW,5.8,-,0.00,,Overcast,300,2013-04-16 08:32:00
2:54 AM,19.9,19.0,96,30.21,5.0,NNW,3.5,-,0.00,Snow,Light Snow,330,2013-04-16 08:54:00
3:06 AM,19.4,17.6,93,30.08,7.0,NW,3.5,-,0.00,Snow,Light Snow,320,2013-04-16 09:06:00
3:33 AM,19.4,17.6,93,30.10,6.0,WNW,3.5,-,0.00,Snow,Light Snow,290,2013-04-16 09:33:00
3:54 AM,19.9,19.0,96,30.24,5.0,Calm,Calm,-,0.00,Snow,Light Snow,0,2013-04-16 09:54:00
4:10 AM,19.4,19.4,100,30.11,5.0,West,4.6,-,0.00,Snow,Light Snow,270,2013-04-16 10:10:00
4:21 AM,19.4,19.4,100,30.11,4.0,West,5.8,-,0.00,Snow,Light Snow,280,2013-04-16 10:21:00
4:43 AM,19.4,19.4,100,30.11,6.0,NW,5.8,-,0.00,Snow,Light Snow,310,2013-04-16 10:43:00
4:54 AM,19.9,19.0,96,30.25,6.0,NW,5.8,-,0.00,Snow,Light Snow,310,2013-04-16 10:54:00
5:27 AM,19.4,17.6,93,30.11,9.0,NW,3.5,-,0.00,,Overcast,320,2013-04-16 11:27:00
5:51 AM,19.4,15.8,86,30.11,10.0,NNW,3.5,-,0.00,,Overcast,330,2013-04-16 11:51:00
6:54 AM,19.0,16.0,88,30.26,10.0,North,5.8,-,N/A,,Overcast,350,2013-04-16 12:54:00
7:49 AM,19.4,15.8,86,30.13,5.0,North,5.8,-,0.00,Snow,Light Snow,350,2013-04-16 13:49:00
7:54 AM,19.9,16.0,85,30.27,6.0,North,6.9,-,0.00,Snow,Light Snow,350,2013-04-16 13:54:00
8:54 AM,21.0,16.0,81,30.29,9.0,North,8.1,-,0.00,Snow,Light Snow,360,2013-04-16 14:54:00
9:07 AM,21.2,15.8,80,30.15,6.0,North,9.2,-,0.00,Snow,Light Snow,360,2013-04-16 15:07:00
9:18 AM,19.4,15.8,86,30.15,2.0,North,10.4,-,0.00,Snow,Light Snow,10,2013-04-16 15:18:00
9:26 AM,19.4,15.8,86,30.15,1.2,NNE,9.2,-,0.00,Snow,Light Snow,30,2013-04-16 15:26:00
9:54 AM,21.0,15.1,78,30.31,2.5,North,10.4,-,0.00,Snow,Light Snow,10,2013-04-16 15:54:00
10:05 AM,21.2,15.8,80,30.15,5.0,North,9.2,-,0.00,Snow,Light Snow,10,2013-04-16 16:05:00
10:38 AM,21.2,17.6,86,30.16,4.0,North,8.1,-,0.00,Snow,Light Snow,10,2013-04-16 16:38:00
10:54 AM,23.0,17.1,78,30.31,6.0,NNE,6.9,-,0.00,Snow,Light Snow,20,2013-04-16 16:54:00
11:39 AM,24.8,19.4,80,30.16,4.0,North,11.5,-,0.00,Snow,Light Snow,10,2013-04-16 17:39:00
11:54 AM,24.1,18.0,77,30.30,5.0,NNE,11.5,-,0.00,Snow,Light Snow,20,2013-04-16 17:54:00
12:09 PM,24.8,17.6,74,30.17,9.0,North,10.4,-,0.00,,Overcast,10,2013-04-16 18:09:00
12:39 PM,24.8,17.6,74,30.16,10.0,North,9.2,-,0.00,,Overcast,10,2013-04-16 18:39:00
12:54 PM,25.0,16.0,69,30.29,10.0,North,9.2,-,0.00,,Overcast,360,2013-04-16 18:54:00
1:13 PM,26.6,19.4,74,30.15,10.0,North,9.2,-,N/A,,Mostly Cloudy,360,2013-04-16 19:13:00
1:26 PM,26.6,17.6,69,30.16,10.0,North,10.4,-,N/A,,Mostly Cloudy,10,2013-04-16 19:26:00
1:37 PM,26.6,17.6,69,30.15,10.0,North,10.4,17.3,N/A,,Mostly Cloudy,10,2013-04-16 19:37:00
1:54 PM,28.0,19.0,69,30.29,10.0,NNE,9.2,-,N/A,,Overcast,20,2013-04-16 19:54:00
2:54 PM,28.0,19.0,69,30.30,10.0,North,13.8,18.4,N/A,,Overcast,10,2013-04-16 20:54:00
3:54 PM,28.9,18.0,64,30.30,10.0,North,13.8,18.4,N/A,,Mostly Cloudy,350,2013-04-16 21:54:00
4:54 PM,28.0,16.0,61,30.31,10.0,North,9.2,-,N/A,,Scattered Clouds,350,2013-04-16 22:54:00
5:54 PM,27.0,15.1,61,30.33,10.0,North,8.1,-,N/A,,Scattered Clouds,360,2013-04-16 23:54:00
6:54 PM,27.0,17.1,66,30.33,10.0,North,10.4,-,N/A,,Scattered Clouds,360,2013-04-17 00:54:00
7:54 PM,24.1,17.1,75,30.35,10.0,North,6.9,-,N/A,,Overcast,360,2013-04-17 01:54:00
8:54 PM,23.0,17.1,78,30.37,10.0,North,6.9,-,N/A,,Overcast,10,2013-04-17 02:54:00
9:20 PM,23.0,19.4,86,30.23,4.0,East,4.6,-,0.00,Snow,Light Snow,90,2013-04-17 03:20:00
9:46 PM,23.0,17.6,80,30.24,3.0,East,4.6,-,0.00,Snow,Light Snow,90,2013-04-17 03:46:00
9:54 PM,21.9,18.0,85,30.39,2.5,East,5.8,-,0.00,Snow,Light Snow,100,2013-04-17 03:54:00
10:06 PM,21.2,17.6,86,30.24,1.8,East,4.6,-,0.00,Snow,Light Snow,100,2013-04-17 04:06:00
10:11 PM,21.2,17.6,86,30.24,3.0,East,4.6,-,0.00,Snow,Light Snow,90,2013-04-17 04:11:00
10:30 PM,21.2,17.6,86,30.25,9.0,East,3.5,-,0.00,,Overcast,90,2013-04-17 04:30:00
10:54 PM,21.9,18.0,85,30.38,5.0,Calm,Calm,-,0.00,Snow,Light Snow,0,2013-04-17 04:54:00
11:12 PM,21.2,17.6,86,30.24,2.5,East,3.5,-,0.00,Snow,Light Snow,90,2013-04-17 05:12:00
11:21 PM,21.2,17.6,86,30.24,3.0,Calm,Calm,-,0.00,Snow,Light Snow,0,2013-04-17 05:21:00
11:39 PM,21.2,17.6,86,30.24,3.0,Calm,Calm,-,0.00,Snow,Light Snow,0,2013-04-17 05:39:00
11:45 PM,21.2,17.6,86,30.24,1.8,Calm,Calm,-,0.01,Snow,Light Snow,0,2013-04-17 05:45:00
11:54 PM,21.0,18.0,88,30.38,1.0,Calm,Calm,-,0.01,Snow,Light Snow,0,2013-04-17 05:54:00